Scott Air Force Base, IL

6:38 PM CDT on September 29, 2016 (GMT -0500)
Scott Air Force Base-Midamerica

Weather History for KBLV - January, 2014

Change the Weather History Date:

Thursday, January 30, 2014

  Actual Average Record
Temperature  
Mean Temperature 32 °F -  
Max Temperature 43 °F 42 °F 65 °F (1971)
Min Temperature 21 °F 23 °F -3 °F (1966)
Degree Days  
Heating Degree Days 33    
Moisture  
Dew Point 11 °F    
Average Humidity 42    
Maximum Humidity 59    
Minimum Humidity 24    
Precipitation  
Precipitation 0.00 in - - ()
Sea Level Pressure  
Sea Level Pressure 29.98 in    
Wind  
Wind Speed 8 mph (South)    
Max Wind Speed 13 mph    
Max Gust Speed 28 mph    
Visibility 10 miles    
Events      
Averages and records for this station are not official NWS values.
T = Trace of Precipitation, MM = Missing Value Source: NWS Daily Summary

Daily Weather History Graph

Daily Weather History Graph

Search for Another Location

Airport or City:

Trip Planner

Search our weather history database for the weather conditions in past years. The results will help you decide how hot, cold, wet, or windy it might be!

Date:

Astronomy

Jan. 30, 2014 Rise Set
Actual Time 7:06 AM CST 5:19 PM CST
Civil Twilight 6:38 AM CST 5:47 PM CST
Nautical Twilight 6:06 AM CST 6:19 PM CST
Astronomical Twilight 5:35 AM CST 6:50 PM CST
Moon 6:32 AM CST (1/30) 5:30 PM CST (1/30)
Length of Visible Light 11h 08m
Length of Day
10h 12m
Waning Crescent, 0% of the Moon is Illuminated
Jan 30
Waning Crescent
Jan 30
New
Feb 6
First Quarter
Feb 14
Full
Feb 22
Last Quarter

Hourly Weather History & Observations

Time (CST) Temp. Windchill Dew Point Humidity Pressure Visibility Wind Dir Wind Speed Gust Speed Precip Events Conditions
12:58 AM 23.4 °F 13.5 °F 9.1 °F 55% 30.14 in 10.0 mi South 9.2 mph - N/A   Clear
2:58 AM 21.9 °F 14.5 °F 9.5 °F 59% 30.11 in 10.0 mi South 5.8 mph - N/A   Clear
3:58 AM 22.3 °F 14.9 °F 9.3 °F 58% 30.09 in 10.0 mi South 5.8 mph - N/A   Clear
4:58 AM 22.1 °F 12.8 °F 9.7 °F 59% 30.09 in 10.0 mi South 8.1 mph - N/A   Clear
5:58 AM 22.5 °F 14.1 °F 9.7 °F 58% 30.08 in 10.0 mi SSE 6.9 mph - N/A   Clear
6:58 AM 23.0 °F 12.4 °F 10.2 °F 58% 30.04 in 10.0 mi SSE 10.4 mph - N/A   Mostly Cloudy
7:58 AM 24.4 °F 14.9 °F 10.4 °F 55% 30.03 in 10.0 mi South 9.2 mph - N/A   Scattered Clouds
8:58 AM 25.9 °F 15.3 °F 10.6 °F 52% 30.01 in 10.0 mi South 11.5 mph 20.7 mph N/A   Partly Cloudy
9:58 AM 29.7 °F 22.8 °F 11.1 °F 46% 29.97 in 10.0 mi Variable 6.9 mph 24.2 mph N/A   Clear
10:58 AM 34.3 °F 25.9 °F 10.0 °F 36% 29.94 in 10.0 mi South 11.5 mph 21.9 mph N/A   Clear
11:58 AM 40.5 °F 33.2 °F 8.2 °F 27% 29.88 in 10.0 mi South 12.7 mph 27.6 mph N/A   Clear
12:58 PM 41.7 °F 36.1 °F 8.6 °F 26% 29.86 in 10.0 mi South 9.2 mph 26.5 mph N/A   Scattered Clouds
1:58 PM 42.3 °F 35.5 °F 8.1 °F 25% 29.82 in 10.0 mi South 12.7 mph 25.3 mph N/A   Partly Cloudy
2:58 PM 43.3 °F 37.2 °F 8.1 °F 24% 29.84 in 10.0 mi South 11.5 mph 23.0 mph N/A   Scattered Clouds
3:58 PM 42.4 °F 39.6 °F 9.1 °F 26% 29.88 in 10.0 mi Variable 4.6 mph 21.9 mph N/A   Scattered Clouds
4:58 PM 40.5 °F 35.8 °F 10.0 °F 29% 29.89 in 10.0 mi Variable 6.9 mph - N/A   Scattered Clouds
5:58 PM 38.1 °F 32.9 °F 11.1 °F 33% 29.93 in 10.0 mi Variable 6.9 mph - N/A   Mostly Cloudy
6:58 PM 36.9 °F 31.4 °F 12.2 °F 36% 29.94 in 10.0 mi Variable 6.9 mph - N/A   Overcast
7:58 PM 35.6 °F 32.8 °F 12.4 °F 38% 29.96 in 10.0 mi Variable 3.5 mph - N/A   Mostly Cloudy
8:58 PM 36.9 °F 33.1 °F 13.6 °F 39% 29.98 in 10.0 mi Variable 4.6 mph - N/A   Overcast
9:58 PM 36.1 °F 33.5 °F 14.7 °F 42% 29.99 in 10.0 mi Variable 3.5 mph - N/A   Overcast
10:58 PM 36.0 °F 33.3 °F 15.6 °F 44% 29.99 in 10.0 mi Variable 3.5 mph - N/A   Mostly Cloudy
11:58 PM 35.8 °F - 16.5 °F 46% 29.99 in 10.0 mi Variable 1.2 mph - N/A   Overcast